This is the latest recevied weather packets stored in our database for station/object KG5VSR. If no packets are shown the sender has not sent any weather packets the latest 10 day(s).
| Time | Temp. | Humidity | Pressure | Rain* | Wind** | Luminosity | Snow |
|---|---|---|---|---|---|---|---|
| 1777109197 | 21.67° C | 85% | 1006.7 hPa | 0 mm | - | 0 W/m² | - |
| 1777107395 | 22.22° C | 85% | 1006.6 hPa | 0 mm | - | 0 W/m² | - |
| 1777105591 | 22.22° C | 86% | 1006.5 hPa | 0 mm | - | 0 W/m² | - |
| 1777103786 | 21.67° C | 91% | 1006.7 hPa | 0 mm | - | 0 W/m² | - |
| 1777101982 | 21.67° C | 92% | 1006.9 hPa | 0 mm | - | 0 W/m² | - |
| 1777100180 | 21.67° C | 91% | 1007.3 hPa | 0 mm | - | 0 W/m² | - |
| 1777098375 | 21.11° C | 90% | 1007.2 hPa | 0 mm | - | 0 W/m² | - |
| 1777096571 | 21.67° C | 87% | 1007.1 hPa | 0 mm | - | 0 W/m² | - |
| 1777094768 | 22.22° C | 83% | 1006.7 hPa | 0 mm | - | 0 W/m² | - |
| 1777092967 | 22.78° C | 77% | 1006.4 hPa | 0 mm | - | 0 W/m² | - |
| 1777091162 | 23.89° C | 68% | 1006.6 hPa | 0 mm | - | 0 W/m² | - |
| 1777089357 | 23.89° C | 67% | 1006.1 hPa | 0 mm | - | 0 W/m² | - |
| 1777087556 | 27.22° C | 50% | 1005.6 hPa | 0 mm | - | 0 W/m² | - |
| 1777085753 | 26.67° C | 52% | 1005 hPa | 0 mm | - | 0 W/m² | - |
| 1777083950 | 26.67° C | 69% | 1005.1 hPa | 0 mm | - | 0 W/m² | - |
| 1777082147 | 27.78° C | 79% | 1004.9 hPa | 0 mm | - | 0 W/m² | - |
| 1777080347 | 28.33° C | 79% | 1004.4 hPa | 0 mm | - | 0 W/m² | - |
| 1777078543 | 28.89° C | 76% | 1003.8 hPa | 0 mm | - | 4 W/m² | - |
| 1777076738 | 30.56° C | 56% | 1003.7 hPa | 0 mm | - | 33 W/m² | - |
| 1777074938 | 32.22° C | 52% | 1003.6 hPa | 0 mm | - | 74 W/m² | - |
| 1777073136 | 32.78° C | 55% | 1003.5 hPa | 0 mm | - | 148 W/m² | - |
| 1777071331 | 32.78° C | 51% | 1003.6 hPa | 0 mm | - | 268 W/m² | - |
| 1777069531 | 32.78° C | 52% | 1003.5 hPa | 0 mm | - | 337 W/m² | - |
| 1777067726 | 31.67° C | 58% | 1003.5 hPa | 0 mm | - | 479 W/m² | - |
| 1777065924 | 32.22° C | 62% | 1003.8 hPa | 0 mm | - | 239 W/m² | - |
* Rain latest hour (hover to see other rain measurements)
** Current wind speed in m/s (hover to see current wind gust speed)